Data supplied by UK-AIR on 3/5/2024
All Data GMT hour ending 
Status: R =Ratified P=Provisional,P*=As supplied
,,Billingham,,,,,,,,,,,,,,,,,,,,,,,
Date,time,"Nitric oxide",status,unit,"Nitrogen dioxide",status,unit,"Nitrogen oxides as nitrogen dioxide",status,unit
 
01-01-2024,01:00,0.98207,P,ugm-3,5.27308,P,ugm-3,6.77890,P,ugm-3
01-01-2024,02:00,1.01714,P,ugm-3,6.85935,P,ugm-3,8.41895,P,ugm-3
01-01-2024,03:00,0.87685,P,ugm-3,7.94917,P,ugm-3,9.29365,P,ugm-3
01-01-2024,04:00,1.26266,P,ugm-3,7.19359,P,ugm-3,9.12964,P,ugm-3
01-01-2024,05:00,0.94700,P,ugm-3,5.27219,P,ugm-3,6.72423,P,ugm-3
01-01-2024,06:00,1.05222,P,ugm-3,3.30679,P,ugm-3,4.92017,P,ugm-3
01-01-2024,07:00,1.05222,P,ugm-3,3.47079,P,ugm-3,5.08417,P,ugm-3
01-01-2024,08:00,0.94700,P,ugm-3,2.59343,P,ugm-3,4.04547,P,ugm-3
01-01-2024,09:00,1.54325,P,ugm-3,5.28730,P,ugm-3,7.65359,P,ugm-3
01-01-2024,10:00,1.29774,P,ugm-3,4.78906,P,ugm-3,6.77890,P,ugm-3
01-01-2024,11:00,1.36788,P,ugm-3,4.46283,P,ugm-3,6.56022,P,ugm-3
01-01-2024,12:00,1.64848,P,ugm-3,4.46994,P,ugm-3,6.99757,P,ugm-3
01-01-2024,13:00,1.50818,P,ugm-3,5.45042,P,ugm-3,7.76293,P,ugm-3
01-01-2024,14:00,1.68355,P,ugm-3,6.43890,P,ugm-3,9.02031,P,ugm-3
01-01-2024,15:00,1.40296,P,ugm-3,10.14925,P,ugm-3,12.30042,P,ugm-3
01-01-2024,16:00,1.05222,P,ugm-3,11.56173,P,ugm-3,13.17511,P,ugm-3
01-01-2024,17:00,0.91192,P,ugm-3,16.53301,P,ugm-3,17.93128,P,ugm-3
01-01-2024,18:00,1.08729,P,ugm-3,16.75613,P,ugm-3,18.42329,P,ugm-3
01-01-2024,19:00,1.01714,P,ugm-3,16.80902,P,ugm-3,18.36862,P,ugm-3
01-01-2024,20:00,0.87685,P,ugm-3,12.97867,P,ugm-3,14.32315,P,ugm-3
01-01-2024,21:00,0.94700,P,ugm-3,10.46570,P,ugm-3,11.91774,P,ugm-3
01-01-2024,22:00,1.57833,P,ugm-3,10.64571,P,ugm-3,13.06578,P,ugm-3
01-01-2024,23:00,1.43803,P,ugm-3,5.55798,P,ugm-3,7.76293,P,ugm-3
01-01-2024,24:00,0.87685,P,ugm-3,4.23171,P,ugm-3,5.57619,P,ugm-3
02-01-2024,01:00,0.88918,P,ugm-3,7.31735,P,ugm-3,8.68075,P,ugm-3
02-01-2024,02:00,1.26358,P,ugm-3,26.58500,P,ugm-3,28.52245,P,ugm-3
02-01-2024,03:00,1.05298,P,ugm-3,5.99023,P,ugm-3,7.60477,P,ugm-3
02-01-2024,04:00,0.91258,P,ugm-3,3.96236,P,ugm-3,5.36164,P,ugm-3
02-01-2024,05:00,0.73709,P,ugm-3,5.43509,P,ugm-3,6.56527,P,ugm-3
02-01-2024,06:00,1.57947,P,ugm-3,8.90327,P,ugm-3,11.32509,P,ugm-3
02-01-2024,07:00,4.10662,P,ugm-3,12.74255,P,ugm-3,19.03929,P,ugm-3
02-01-2024,08:00,21.48080,P,ugm-3,46.06533,P,ugm-3,79.00209,P,ugm-3
02-01-2024,09:00,25.06093,P,ugm-3,34.94068,P,ugm-3,73.36690,P,ugm-3
02-01-2024,10:00,39.20596,P,ugm-3,39.73185,P,ugm-3,99.84683,P,ugm-3
02-01-2024,11:00,20.88411,P,ugm-3,30.01996,P,ugm-3,62.04181,P,ugm-3
02-01-2024,12:00,23.51656,P,ugm-3,32.82241,P,ugm-3,68.88063,P,ugm-3
02-01-2024,13:00,21.79669,P,ugm-3,29.49605,P,ugm-3,62.91718,P,ugm-3
02-01-2024,14:00,58.89669,P,ugm-3,52.98003,P,ugm-3,143.28703,P,ugm-3
02-01-2024,15:00,48.96358,P,ugm-3,52.45394,P,ugm-3,127.53038,P,ugm-3
02-01-2024,16:00,76.65696,P,ugm-3,57.48014,P,ugm-3,175.01917,P,ugm-3
02-01-2024,17:00,65.95166,P,ugm-3,56.49674,P,ugm-3,157.62121,P,ugm-3
02-01-2024,18:00,51.45563,P,ugm-3,57.05828,P,ugm-3,135.95581,P,ugm-3
02-01-2024,19:00,44.96225,P,ugm-3,56.01782,P,ugm-3,124.95898,P,ugm-3
02-01-2024,20:00,19.58543,P,ugm-3,51.98060,P,ugm-3,82.01117,P,ugm-3
02-01-2024,21:00,7.89735,P,ugm-3,30.29160,P,ugm-3,42.40071,P,ugm-3
02-01-2024,22:00,5.40530,P,ugm-3,23.33471,P,ugm-3,31.62272,P,ugm-3
02-01-2024,23:00,3.47483,P,ugm-3,15.84499,P,ugm-3,21.17300,P,ugm-3
02-01-2024,24:00,2.28146,P,ugm-3,10.12475,P,ugm-3,13.62294,P,ugm-3
03-01-2024,01:00,1.82649,P,ugm-3,10.99710,P,ugm-3,13.79767,P,ugm-3
03-01-2024,02:00,1.26449,P,ugm-3,5.50750,P,ugm-3,7.44636,P,ugm-3
03-01-2024,03:00,1.19424,P,ugm-3,4.84868,P,ugm-3,6.67983,P,ugm-3
03-01-2024,04:00,0.77275,P,ugm-3,7.95884,P,ugm-3,9.14370,P,ugm-3
03-01-2024,05:00,1.12399,P,ugm-3,9.17235,P,ugm-3,10.89578,P,ugm-3
03-01-2024,06:00,2.45873,P,ugm-3,19.22612,P,ugm-3,22.99612,P,ugm-3
03-01-2024,07:00,5.30383,P,ugm-3,27.67581,P,ugm-3,35.80824,P,ugm-3
03-01-2024,08:00,18.65123,P,ugm-3,46.63200,P,ugm-3,75.23015,P,ugm-3
03-01-2024,09:00,69.51184,P,ugm-3,57.29137,P,ugm-3,163.87471,P,ugm-3
03-01-2024,10:00,81.10300,P,ugm-3,61.74808,P,ugm-3,186.10429,P,ugm-3
03-01-2024,11:00,41.55256,P,ugm-3,51.65082,P,ugm-3,115.36385,P,ugm-3
03-01-2024,12:00,21.56658,P,ugm-3,42.16185,P,ugm-3,75.23015,P,ugm-3
03-01-2024,13:00,11.66141,P,ugm-3,31.72533,P,ugm-3,49.60591,P,ugm-3
03-01-2024,14:00,16.26275,P,ugm-3,35.67532,P,ugm-3,60.61119,P,ugm-3
03-01-2024,15:00,19.28348,P,ugm-3,44.34850,P,ugm-3,73.91609,P,ugm-3
03-01-2024,16:00,24.72781,P,ugm-3,48.70326,P,ugm-3,86.61871,P,ugm-3
03-01-2024,17:00,32.38500,P,ugm-3,47.25590,P,ugm-3,96.91221,P,ugm-3
03-01-2024,18:00,39.16408,P,ugm-3,47.31922,P,ugm-3,107.36997,P,ugm-3
03-01-2024,19:00,20.58309,P,ugm-3,42.41054,P,ugm-3,73.97084,P,ugm-3
03-01-2024,20:00,22.93645,P,ugm-3,57.03475,P,ugm-3,92.20348,P,ugm-3
03-01-2024,21:00,36.03797,P,ugm-3,61.74898,P,ugm-3,117.00643,P,ugm-3
03-01-2024,22:00,12.25853,P,ugm-3,51.12299,P,ugm-3,69.91915,P,ugm-3
03-01-2024,23:00,4.70671,P,ugm-3,40.47271,P,ugm-3,47.68957,P,ugm-3
03-01-2024,24:00,2.31823,P,ugm-3,23.38374,P,ugm-3,26.93831,P,ugm-3
04-01-2024,01:00,1.92154,P,ugm-3,18.82545,P,ugm-3,21.77177,P,ugm-3
04-01-2024,02:00,1.65206,P,ugm-3,13.13818,P,ugm-3,15.67129,P,ugm-3
04-01-2024,03:00,1.19510,P,ugm-3,8.41415,P,ugm-3,10.24662,P,ugm-3
04-01-2024,04:00,0.98420,P,ugm-3,7.97040,P,ugm-3,9.47949,P,ugm-3
04-01-2024,05:00,1.15995,P,ugm-3,7.75571,P,ugm-3,9.53428,P,ugm-3
04-01-2024,06:00,1.01935,P,ugm-3,8.90281,P,ugm-3,10.46579,P,ugm-3
04-01-2024,07:00,6.60822,P,ugm-3,22.47040,P,ugm-3,32.60286,P,ugm-3
04-01-2024,08:00,3.26896,P,ugm-3,28.57683,P,ugm-3,33.58917,P,ugm-3
04-01-2024,09:00,2.39021,P,ugm-3,28.60916,P,ugm-3,32.27410,P,ugm-3
04-01-2024,10:00,5.13192,P,ugm-3,33.55599,P,ugm-3,41.42482,P,ugm-3
04-01-2024,11:00,4.95617,P,ugm-3,28.07202,P,ugm-3,35.67137,P,ugm-3
04-01-2024,12:00,4.07741,P,ugm-3,17.58376,P,ugm-3,23.83571,P,ugm-3
04-01-2024,13:00,6.15127,P,ugm-3,15.28061,P,ugm-3,24.71242,P,ugm-3
04-01-2024,14:00,6.53792,P,ugm-3,18.24941,P,ugm-3,28.27408,P,ugm-3
04-01-2024,15:00,3.44471,P,ugm-3,14.88264,P,ugm-3,20.16446,P,ugm-3
04-01-2024,16:00,3.19866,P,ugm-3,19.25993,P,ugm-3,24.16448,P,ugm-3
04-01-2024,17:00,2.17931,P,ugm-3,19.72702,P,ugm-3,23.06858,P,ugm-3
04-01-2024,18:00,2.60111,P,ugm-3,28.55976,P,ugm-3,32.54807,P,ugm-3
04-01-2024,19:00,2.10901,P,ugm-3,29.31430,P,ugm-3,32.54807,P,ugm-3
04-01-2024,20:00,1.86296,P,ugm-3,28.04773,P,ugm-3,30.90423,P,ugm-3
04-01-2024,21:00,2.24961,P,ugm-3,34.46860,P,ugm-3,37.91795,P,ugm-3
04-01-2024,22:00,4.85072,P,ugm-3,38.26114,P,ugm-3,45.69880,P,ugm-3
04-01-2024,23:00,3.58531,P,ugm-3,32.80411,P,ugm-3,38.30152,P,ugm-3
04-01-2024,24:00,4.74527,P,ugm-3,32.83377,P,ugm-3,40.10974,P,ugm-3
05-01-2024,01:00,2.62644,P,ugm-3,21.19778,P,ugm-3,25.22493,P,ugm-3
05-01-2024,02:00,3.37685,P,ugm-3,19.24289,P,ugm-3,24.42066,P,ugm-3
05-01-2024,03:00,2.67334,P,ugm-3,15.75186,P,ugm-3,19.85092,P,ugm-3
05-01-2024,04:00,5.13562,P,ugm-3,18.94068,P,ugm-3,26.81520,P,ugm-3
05-01-2024,05:00,3.02509,P,ugm-3,15.26735,P,ugm-3,19.90576,P,ugm-3
05-01-2024,06:00,4.11554,P,ugm-3,12.55346,P,ugm-3,18.86386,P,ugm-3
05-01-2024,07:00,40.31114,P,ugm-3,31.24850,P,ugm-3,93.05805,P,ugm-3
05-01-2024,08:00,74.78314,P,ugm-3,49.13164,P,ugm-3,163.79752,P,ugm-3
05-01-2024,09:00,48.54221,P,ugm-3,46.21061,P,ugm-3,120.64096,P,ugm-3
05-01-2024,10:00,63.31592,P,ugm-3,46.31517,P,ugm-3,143.39823,P,ugm-3
05-01-2024,11:00,63.56215,P,ugm-3,41.11198,P,ugm-3,138.57259,P,ugm-3
05-01-2024,12:00,50.93414,P,ugm-3,44.07846,P,ugm-3,122.17639,P,ugm-3
05-01-2024,13:00,34.29613,P,ugm-3,36.85216,P,ugm-3,89.43882,P,ugm-3
05-01-2024,14:00,47.10001,P,ugm-3,47.81874,P,ugm-3,120.03775,P,ugm-3
05-01-2024,15:00,15.44205,P,ugm-3,37.63006,P,ugm-3,61.30754,P,ugm-3
05-01-2024,16:00,8.79388,P,ugm-3,22.92788,P,ugm-3,36.41163,P,ugm-3
05-01-2024,17:00,8.75870,P,ugm-3,21.28187,P,ugm-3,34.71169,P,ugm-3
05-01-2024,18:00,5.38185,P,ugm-3,22.51138,P,ugm-3,30.76344,P,ugm-3
05-01-2024,19:00,8.96976,P,ugm-3,45.96384,P,ugm-3,59.71727,P,ugm-3
05-01-2024,20:00,7.07028,P,ugm-3,32.97366,P,ugm-3,43.81460,P,ugm-3
05-01-2024,21:00,10.44713,P,ugm-3,45.28884,P,ugm-3,61.30754,P,ugm-3
05-01-2024,22:00,17.90434,P,ugm-3,49.42826,P,ugm-3,76.88119,P,ugm-3
05-01-2024,23:00,8.37177,P,ugm-3,41.34222,P,ugm-3,54.17876,P,ugm-3
05-01-2024,24:00,6.82405,P,ugm-3,36.20272,P,ugm-3,46.66612,P,ugm-3
06-01-2024,01:00,3.89557,P,ugm-3,28.92984,P,ugm-3,34.90296,P,ugm-3
06-01-2024,02:00,1.86565,P,ugm-3,11.07861,P,ugm-3,13.93923,P,ugm-3
06-01-2024,03:00,1.86565,P,ugm-3,10.63958,P,ugm-3,13.50020,P,ugm-3
06-01-2024,04:00,1.58404,P,ugm-3,8.76646,P,ugm-3,11.19529,P,ugm-3
06-01-2024,05:00,2.85127,P,ugm-3,10.88444,P,ugm-3,15.25633,P,ugm-3
06-01-2024,06:00,2.28806,P,ugm-3,11.19923,P,ugm-3,14.70754,P,ugm-3
06-01-2024,07:00,3.09768,P,ugm-3,15.17132,P,ugm-3,19.92103,P,ugm-3
06-01-2024,08:00,16.15722,P,ugm-3,29.88530,P,ugm-3,54.65935,P,ugm-3
06-01-2024,09:00,26.25988,P,ugm-3,36.29144,P,ugm-3,76.55602,P,ugm-3
06-01-2024,10:00,21.43735,P,ugm-3,33.58817,P,ugm-3,66.45831,P,ugm-3
06-01-2024,11:00,29.49836,P,ugm-3,36.26494,P,ugm-3,81.49512,P,ugm-3
06-01-2024,12:00,29.60396,P,ugm-3,40.43845,P,ugm-3,85.83055,P,ugm-3
06-01-2024,13:00,22.00057,P,ugm-3,32.39531,P,ugm-3,66.12904,P,ugm-3
06-01-2024,14:00,9.46904,P,ugm-3,14.56680,P,ugm-3,29.08580,P,ugm-3
06-01-2024,15:00,10.66587,P,ugm-3,18.49397,P,ugm-3,34.84808,P,ugm-3
06-01-2024,16:00,10.52507,P,ugm-3,21.39893,P,ugm-3,37.53715,P,ugm-3
06-01-2024,17:00,9.08183,P,ugm-3,25.75214,P,ugm-3,39.67742,P,ugm-3
06-01-2024,18:00,9.15224,P,ugm-3,35.19311,P,ugm-3,49.22635,P,ugm-3
06-01-2024,19:00,5.91375,P,ugm-3,24.73776,P,ugm-3,33.80538,P,ugm-3
06-01-2024,20:00,5.06893,P,ugm-3,26.47216,P,ugm-3,34.24441,P,ugm-3
06-01-2024,21:00,6.08976,P,ugm-3,27.37647,P,ugm-3,36.71396,P,ugm-3
06-01-2024,22:00,3.16808,P,ugm-3,18.57562,P,ugm-3,23.43328,P,ugm-3
06-01-2024,23:00,2.92168,P,ugm-3,15.93510,P,ugm-3,20.41494,P,ugm-3
06-01-2024,24:00,5.66735,P,ugm-3,20.01184,P,ugm-3,28.70165,P,ugm-3
07-01-2024,01:00,3.56960,P,ugm-3,19.71710,P,ugm-3,25.19040,P,ugm-3
07-01-2024,02:00,1.79654,P,ugm-3,13.11749,P,ugm-3,15.87215,P,ugm-3
07-01-2024,03:00,1.83177,P,ugm-3,11.80030,P,ugm-3,14.60897,P,ugm-3
07-01-2024,04:00,1.69086,P,ugm-3,9.32522,P,ugm-3,11.91784,P,ugm-3
07-01-2024,05:00,2.36016,P,ugm-3,12.69265,P,ugm-3,16.31152,P,ugm-3
07-01-2024,06:00,5.49530,P,ugm-3,17.82620,P,ugm-3,26.25221,P,ugm-3
07-01-2024,07:00,2.04313,P,ugm-3,10.87209,P,ugm-3,14.00484,P,ugm-3
07-01-2024,08:00,3.27605,P,ugm-3,19.80107,P,ugm-3,24.82427,P,ugm-3
07-01-2024,09:00,2.36016,P,ugm-3,18.40443,P,ugm-3,22.02330,P,ugm-3
07-01-2024,10:00,4.86123,P,ugm-3,23.41179,P,ugm-3,30.86557,P,ugm-3
07-01-2024,11:00,6.83390,P,ugm-3,27.30710,P,ugm-3,37.78561,P,ugm-3
07-01-2024,12:00,7.11571,P,ugm-3,25.99627,P,ugm-3,36.90687,P,ugm-3
07-01-2024,13:00,6.72822,P,ugm-3,26.20596,P,ugm-3,36.52243,P,ugm-3
07-01-2024,14:00,4.64987,P,ugm-3,29.77717,P,ugm-3,36.90687,P,ugm-3
07-01-2024,15:00,3.45218,P,ugm-3,32.27266,P,ugm-3,37.56592,P,ugm-3
07-01-2024,16:00,16.27455,P,ugm-3,45.78421,P,ugm-3,70.73817,P,ugm-3
07-01-2024,17:00,13.94961,P,ugm-3,37.87059,P,ugm-3,59.25969,P,ugm-3
07-01-2024,18:00,27.58219,P,ugm-3,47.06427,P,ugm-3,89.35637,P,ugm-3
07-01-2024,19:00,17.19043,P,ugm-3,41.96335,P,ugm-3,68.32165,P,ugm-3
07-01-2024,20:00,26.03223,P,ugm-3,42.46588,P,ugm-3,82.38141,P,ugm-3
07-01-2024,21:00,20.81874,P,ugm-3,41.78228,P,ugm-3,73.70390,P,ugm-3
07-01-2024,22:00,12.68147,P,ugm-3,47.17446,P,ugm-3,66.61910,P,ugm-3
07-01-2024,23:00,22.58006,P,ugm-3,42.43181,P,ugm-3,77.05408,P,ugm-3
07-01-2024,24:00,17.19043,P,ugm-3,35.75729,P,ugm-3,62.11558,P,ugm-3
08-01-2024,01:00,6.53331,P,ugm-3,28.89620,P,ugm-3,38.91381,P,ugm-3
08-01-2024,02:00,4.12445,P,ugm-3,24.45522,P,ugm-3,30.77929,P,ugm-3
08-01-2024,03:00,4.08920,P,ugm-3,23.73979,P,ugm-3,30.00980,P,ugm-3
08-01-2024,04:00,4.51222,P,ugm-3,23.25606,P,ugm-3,30.17469,P,ugm-3
08-01-2024,05:00,4.75898,P,ugm-3,20.51429,P,ugm-3,27.81128,P,ugm-3
08-01-2024,06:00,2.00935,P,ugm-3,12.96824,P,ugm-3,16.04920,P,ugm-3
08-01-2024,07:00,3.45467,P,ugm-3,18.99657,P,ugm-3,24.29365,P,ugm-3
08-01-2024,08:00,4.37121,P,ugm-3,20.55923,P,ugm-3,27.26165,P,ugm-3
08-01-2024,09:00,5.88703,P,ugm-3,13.89292,P,ugm-3,22.91957,P,ugm-3
08-01-2024,10:00,12.97262,P,ugm-3,19.40748,P,ugm-3,39.29855,P,ugm-3
08-01-2024,11:00,8.60141,P,ugm-3,9.89582,P,ugm-3,23.08446,P,ugm-3
08-01-2024,12:00,9.58846,P,ugm-3,18.27571,P,ugm-3,32.97781,P,ugm-3
08-01-2024,13:00,8.63666,P,ugm-3,13.90903,P,ugm-3,27.15173,P,ugm-3
08-01-2024,14:00,18.47188,P,ugm-3,20.53896,P,ugm-3,48.86211,P,ugm-3
08-01-2024,15:00,17.37908,P,ugm-3,18.53204,P,ugm-3,45.17959,P,ugm-3
08-01-2024,16:00,21.57403,P,ugm-3,18.64047,P,ugm-3,51.72019,P,ugm-3
08-01-2024,17:00,13.99492,P,ugm-3,12.01390,P,ugm-3,33.47247,P,ugm-3
08-01-2024,18:00,7.50861,P,ugm-3,8.21868,P,ugm-3,19.73172,P,ugm-3
08-01-2024,19:00,4.75898,P,ugm-3,5.39946,P,ugm-3,12.69645,P,ugm-3
08-01-2024,20:00,3.13740,P,ugm-3,6.12703,P,ugm-3,10.93764,P,ugm-3
08-01-2024,21:00,1.83309,P,ugm-3,6.75287,P,ugm-3,9.56356,P,ugm-3
08-01-2024,22:00,1.12805,P,ugm-3,6.84457,P,ugm-3,8.57423,P,ugm-3
08-01-2024,23:00,0.84604,P,ugm-3,4.96854,P,ugm-3,6.26578,P,ugm-3
08-01-2024,24:00,0.84604,P,ugm-3,6.28765,P,ugm-3,7.58490,P,ugm-3
09-01-2024,01:00,0.75258,P,ugm-3,7.28018,P,ugm-3,8.43411,P,ugm-3
09-01-2024,02:00,0.65851,P,ugm-3,7.86446,P,ugm-3,8.87415,P,ugm-3
09-01-2024,03:00,1.12887,P,ugm-3,5.85980,P,ugm-3,7.59070,P,ugm-3
09-01-2024,04:00,0.59971,P,ugm-3,5.62606,P,ugm-3,6.54560,P,ugm-3
09-01-2024,05:00,1.30525,P,ugm-3,6.85446,P,ugm-3,8.85582,P,ugm-3
09-01-2024,06:00,2.22246,P,ugm-3,5.61312,P,ugm-3,9.02083,P,ugm-3
09-01-2024,07:00,14.39305,P,ugm-3,15.60945,P,ugm-3,37.67848,P,ugm-3
09-01-2024,08:00,26.42253,P,ugm-3,18.61648,P,ugm-3,59.13046,P,ugm-3
09-01-2024,09:00,17.28577,P,ugm-3,13.81425,P,ugm-3,40.31872,P,ugm-3
09-01-2024,10:00,13.61695,P,ugm-3,10.85890,P,ugm-3,31.73793,P,ugm-3
09-01-2024,11:00,11.35922,P,ugm-3,10.63537,P,ugm-3,28.05259,P,ugm-3
09-01-2024,12:00,10.15980,P,ugm-3,9.28416,P,ugm-3,24.86230,P,ugm-3
09-01-2024,13:00,9.59537,P,ugm-3,11.24971,P,ugm-3,25.96240,P,ugm-3
09-01-2024,14:00,9.17204,P,ugm-3,10.13864,P,ugm-3,24.20223,P,ugm-3
09-01-2024,15:00,6.70265,P,ugm-3,10.34966,P,ugm-3,20.62691,P,ugm-3
09-01-2024,16:00,7.69040,P,ugm-3,13.23553,P,ugm-3,25.02731,P,ugm-3
09-01-2024,17:00,35.73568,P,ugm-3,24.52338,P,ugm-3,79.31733,P,ugm-3
09-01-2024,18:00,36.08845,P,ugm-3,20.29713,P,ugm-3,75.63198,P,ugm-3
09-01-2024,19:00,20.17849,P,ugm-3,15.53938,P,ugm-3,46.47929,P,ugm-3
09-01-2024,20:00,9.73647,P,ugm-3,9.60322,P,ugm-3,24.53227,P,ugm-3
09-01-2024,21:00,5.11518,P,ugm-3,7.55826,P,ugm-3,15.40142,P,ugm-3
09-01-2024,22:00,3.49243,P,ugm-3,9.60640,P,ugm-3,14.96138,P,ugm-3
09-01-2024,23:00,2.46940,P,ugm-3,7.76471,P,ugm-3,11.55107,P,ugm-3
09-01-2024,24:00,1.83441,P,ugm-3,6.15311,P,ugm-3,8.96583,P,ugm-3
10-01-2024,01:00,1.92987,P,ugm-3,9.44487,P,ugm-3,12.40396,P,ugm-3
10-01-2024,02:00,1.50624,P,ugm-3,7.30537,P,ugm-3,9.61490,P,ugm-3
10-01-2024,03:00,1.44740,P,ugm-3,6.75337,P,ugm-3,8.97269,P,ugm-3
10-01-2024,04:00,1.20028,P,ugm-3,5.59096,P,ugm-3,7.43137,P,ugm-3
10-01-2024,05:00,1.65922,P,ugm-3,8.08001,P,ugm-3,10.62410,P,ugm-3
10-01-2024,06:00,1.30619,P,ugm-3,7.85064,P,ugm-3,9.85344,P,ugm-3
10-01-2024,07:00,3.24783,P,ugm-3,11.03879,P,ugm-3,16.01872,P,ugm-3
10-01-2024,08:00,12.70889,P,ugm-3,24.16570,P,ugm-3,43.65239,P,ugm-3
10-01-2024,09:00,26.40625,P,ugm-3,27.38412,P,ugm-3,67.87314,P,ugm-3
10-01-2024,10:00,21.85223,P,ugm-3,21.21059,P,ugm-3,54.71687,P,ugm-3
10-01-2024,11:00,17.29821,P,ugm-3,18.67016,P,ugm-3,45.19371,P,ugm-3
10-01-2024,12:00,13.46201,P,ugm-3,15.68966,P,ugm-3,36.33112,P,ugm-3
10-01-2024,13:00,17.68654,P,ugm-3,16.42332,P,ugm-3,43.54230,P,ugm-3
10-01-2024,14:00,20.68725,P,ugm-3,19.47385,P,ugm-3,51.19385,P,ugm-3
10-01-2024,15:00,18.81622,P,ugm-3,19.03989,P,ugm-3,47.89102,P,ugm-3
10-01-2024,16:00,24.49991,P,ugm-3,18.08666,P,ugm-3,55.65267,P,ugm-3
10-01-2024,17:00,25.48838,P,ugm-3,19.59862,P,ugm-3,58.68026,P,ugm-3
10-01-2024,18:00,20.86376,P,ugm-3,18.87292,P,ugm-3,50.86357,P,ugm-3
10-01-2024,19:00,18.46319,P,ugm-3,16.00313,P,ugm-3,44.31296,P,ugm-3
10-01-2024,20:00,13.69736,P,ugm-3,12.46634,P,ugm-3,33.46867,P,ugm-3
10-01-2024,21:00,9.03743,P,ugm-3,9.97821,P,ugm-3,23.83542,P,ugm-3
10-01-2024,22:00,5.89551,P,ugm-3,7.08916,P,ugm-3,16.12881,P,ugm-3
10-01-2024,23:00,3.56555,P,ugm-3,5.54233,P,ugm-3,11.00943,P,ugm-3
10-01-2024,24:00,2.61238,P,ugm-3,6.78364,P,ugm-3,10.78924,P,ugm-3
11-01-2024,01:00,2.44299,P,ugm-3,6.99907,P,ugm-3,10.74494,P,ugm-3
11-01-2024,02:00,1.69130,P,ugm-3,7.49379,P,ugm-3,10.08708,P,ugm-3
11-01-2024,03:00,1.62083,P,ugm-3,6.12168,P,ugm-3,8.60691,P,ugm-3
11-01-2024,04:00,1.51512,P,ugm-3,4.91323,P,ugm-3,7.23639,P,ugm-3
11-01-2024,05:00,1.65607,P,ugm-3,7.10925,P,ugm-3,9.64852,P,ugm-3
11-01-2024,06:00,1.76177,P,ugm-3,8.48216,P,ugm-3,11.18351,P,ugm-3
11-01-2024,07:00,4.96820,P,ugm-3,14.52993,P,ugm-3,22.14773,P,ugm-3
11-01-2024,08:00,8.70315,P,ugm-3,19.27391,P,ugm-3,32.61856,P,ugm-3
11-01-2024,09:00,12.47334,P,ugm-3,19.57818,P,ugm-3,38.70370,P,ugm-3
11-01-2024,10:00,14.97506,P,ugm-3,14.81031,P,ugm-3,37.77174,P,ugm-3
11-01-2024,11:00,20.82414,P,ugm-3,17.02535,P,ugm-3,48.95525,P,ugm-3
11-01-2024,12:00,27.55411,P,ugm-3,17.12222,P,ugm-3,59.37126,P,ugm-3
11-01-2024,13:00,23.29062,P,ugm-3,17.62915,P,ugm-3,53.34094,P,ugm-3
11-01-2024,14:00,16.06736,P,ugm-3,11.60048,P,ugm-3,36.23675,P,ugm-3
11-01-2024,15:00,13.17805,P,ugm-3,10.11001,P,ugm-3,30.31607,P,ugm-3
11-01-2024,16:00,17.68819,P,ugm-3,10.97916,P,ugm-3,38.10067,P,ugm-3
11-01-2024,17:00,30.33771,P,ugm-3,16.69157,P,ugm-3,63.20874,P,ugm-3
11-01-2024,18:00,23.92486,P,ugm-3,13.80597,P,ugm-3,50.49024,P,ugm-3
11-01-2024,19:00,9.86592,P,ugm-3,12.66677,P,ugm-3,27.79430,P,ugm-3
11-01-2024,20:00,6.72997,P,ugm-3,6.73023,P,ugm-3,17.04936,P,ugm-3
11-01-2024,21:00,5.07390,P,ugm-3,7.62486,P,ugm-3,15.40473,P,ugm-3
11-01-2024,22:00,3.59401,P,ugm-3,4.52152,P,ugm-3,10.03226,P,ugm-3
11-01-2024,23:00,2.53695,P,ugm-3,3.89466,P,ugm-3,7.78460,P,ugm-3
11-01-2024,24:00,2.25507,P,ugm-3,3.77866,P,ugm-3,7.23639,P,ugm-3
12-01-2024,01:00,1.96943,P,ugm-3,2.51255,P,ugm-3,5.53230,P,ugm-3
12-01-2024,02:00,1.61775,P,ugm-3,1.99629,P,ugm-3,4.47680,P,ugm-3
12-01-2024,03:00,1.54741,P,ugm-3,3.25063,P,ugm-3,5.62329,P,ugm-3
12-01-2024,04:00,1.30123,P,ugm-3,2.09944,P,ugm-3,4.09463,P,ugm-3
12-01-2024,05:00,1.82876,P,ugm-3,5.71278,P,ugm-3,8.51683,P,ugm-3
12-01-2024,06:00,3.72785,P,ugm-3,10.44418,P,ugm-3,16.16014,P,ugm-3
12-01-2024,07:00,38.08737,P,ugm-3,35.01233,P,ugm-3,93.41215,P,ugm-3
12-01-2024,08:00,12.06276,P,ugm-3,24.79791,P,ugm-3,43.29389,P,ugm-3
12-01-2024,09:00,21.20654,P,ugm-3,31.85134,P,ugm-3,64.36758,P,ugm-3
12-01-2024,10:00,26.79832,P,ugm-3,24.69687,P,ugm-3,65.78705,P,ugm-3
12-01-2024,11:00,27.43135,P,ugm-3,22.90731,P,ugm-3,64.96812,P,ugm-3
12-01-2024,12:00,23.63316,P,ugm-3,22.17971,P,ugm-3,58.41672,P,ugm-3
12-01-2024,13:00,23.84417,P,ugm-3,20.65507,P,ugm-3,57.21563,P,ugm-3
12-01-2024,14:00,22.57811,P,ugm-3,20.41254,P,ugm-3,55.03182,P,ugm-3
12-01-2024,15:00,18.14689,P,ugm-3,25.35075,P,ugm-3,53.17559,P,ugm-3
12-01-2024,16:00,15.12241,P,ugm-3,21.85356,P,ugm-3,45.04093,P,ugm-3
12-01-2024,17:00,17.90071,P,ugm-3,23.48982,P,ugm-3,50.93719,P,ugm-3
12-01-2024,18:00,13.01231,P,ugm-3,17.60948,P,ugm-3,37.56140,P,ugm-3
12-01-2024,19:00,10.26917,P,ugm-3,22.96206,P,ugm-3,38.70790,P,ugm-3
12-01-2024,20:00,9.56580,P,ugm-3,27.80760,P,ugm-3,42.47496,P,ugm-3
12-01-2024,21:00,6.89301,P,ugm-3,24.91766,P,ugm-3,35.48679,P,ugm-3
12-01-2024,22:00,7.06885,P,ugm-3,24.97561,P,ugm-3,35.81436,P,ugm-3
12-01-2024,23:00,3.09482,P,ugm-3,17.85703,P,ugm-3,22.60236,P,ugm-3
12-01-2024,24:00,2.03977,P,ugm-3,15.54391,P,ugm-3,18.67151,P,ugm-3
13-01-2024,01:00,1.77847,P,ugm-3,18.36823,P,ugm-3,21.09518,P,ugm-3
13-01-2024,02:00,1.71997,P,ugm-3,9.54142,P,ugm-3,12.17866,P,ugm-3
13-01-2024,03:00,0.94774,P,ugm-3,7.30024,P,ugm-3,8.75341,P,ugm-3
13-01-2024,04:00,0.73713,P,ugm-3,4.08918,P,ugm-3,5.21943,P,ugm-3
13-01-2024,05:00,0.87753,P,ugm-3,5.01564,P,ugm-3,6.36118,P,ugm-3
13-01-2024,06:00,0.98284,P,ugm-3,6.15903,P,ugm-3,7.66603,P,ugm-3
13-01-2024,07:00,1.71997,P,ugm-3,12.20550,P,ugm-3,14.84274,P,ugm-3
13-01-2024,08:00,2.91341,P,ugm-3,21.79307,P,ugm-3,26.26024,P,ugm-3
13-01-2024,09:00,3.75585,P,ugm-3,30.99458,P,ugm-3,36.75346,P,ugm-3
13-01-2024,10:00,5.93213,P,ugm-3,32.38776,P,ugm-3,41.48356,P,ugm-3
13-01-2024,11:00,10.14429,P,ugm-3,39.63019,P,ugm-3,55.18455,P,ugm-3
13-01-2024,12:00,10.03899,P,ugm-3,34.68097,P,ugm-3,50.07387,P,ugm-3
13-01-2024,13:00,6.52885,P,ugm-3,25.05725,P,ugm-3,35.06802,P,ugm-3
13-01-2024,14:00,7.58189,P,ugm-3,22.02902,P,ugm-3,33.65442,P,ugm-3
13-01-2024,15:00,5.23010,P,ugm-3,12.26027,P,ugm-3,20.27965,P,ugm-3
13-01-2024,16:00,6.14274,P,ugm-3,19.88617,P,ugm-3,29.30490,P,ugm-3
13-01-2024,17:00,9.72308,P,ugm-3,43.21197,P,ugm-3,58.12048,P,ugm-3
13-01-2024,18:00,7.79250,P,ugm-3,34.91776,P,ugm-3,46.86610,P,ugm-3
13-01-2024,19:00,8.59983,P,ugm-3,32.10317,P,ugm-3,45.28939,P,ugm-3
13-01-2024,20:00,4.94929,P,ugm-3,27.47921,P,ugm-3,35.06802,P,ugm-3
13-01-2024,21:00,2.77301,P,ugm-3,29.18506,P,ugm-3,33.43695,P,ugm-3
13-01-2024,22:00,2.38689,P,ugm-3,22.49165,P,ugm-3,26.15150,P,ugm-3
13-01-2024,23:00,1.68487,P,ugm-3,19.81661,P,ugm-3,22.40004,P,ugm-3
13-01-2024,24:00,1.57956,P,ugm-3,12.80137,P,ugm-3,15.22333,P,ugm-3
14-01-2024,01:00,2.42905,P,ugm-3,10.35269,P,ugm-3,14.07717,P,ugm-3
14-01-2024,02:00,0.94593,P,ugm-3,9.05334,P,ugm-3,10.50374,P,ugm-3
14-01-2024,03:00,1.12110,P,ugm-3,12.19575,P,ugm-3,13.91475,P,ugm-3
14-01-2024,04:00,0.94593,P,ugm-3,11.76049,P,ugm-3,13.21089,P,ugm-3
14-01-2024,05:00,1.08606,P,ugm-3,9.92132,P,ugm-3,11.58660,P,ugm-3
14-01-2024,06:00,1.08606,P,ugm-3,7.86389,P,ugm-3,9.52916,P,ugm-3
14-01-2024,07:00,1.15613,P,ugm-3,13.82047,P,ugm-3,15.59318,P,ugm-3
14-01-2024,08:00,1.15613,P,ugm-3,11.97960,P,ugm-3,13.75232,P,ugm-3
14-01-2024,09:00,1.26124,P,ugm-3,9.49030,P,ugm-3,11.42417,P,ugm-3
14-01-2024,10:00,3.29323,P,ugm-3,15.52479,P,ugm-3,20.57433,P,ugm-3
14-01-2024,11:00,2.90785,P,ugm-3,13.67926,P,ugm-3,18.13790,P,ugm-3
14-01-2024,12:00,2.83778,P,ugm-3,8.31825,P,ugm-3,12.66946,P,ugm-3
14-01-2024,13:00,2.06703,P,ugm-3,6.79291,P,ugm-3,9.96231,P,ugm-3
14-01-2024,14:00,2.13709,P,ugm-3,6.63133,P,ugm-3,9.90817,P,ugm-3
14-01-2024,15:00,1.92689,P,ugm-3,6.89950,P,ugm-3,9.85402,P,ugm-3
14-01-2024,16:00,1.15613,P,ugm-3,6.34874,P,ugm-3,8.12145,P,ugm-3
14-01-2024,17:00,1.05103,P,ugm-3,6.34746,P,ugm-3,7.95902,P,ugm-3
14-01-2024,18:00,1.19117,P,ugm-3,8.19002,P,ugm-3,10.01645,P,ugm-3
14-01-2024,19:00,1.29627,P,ugm-3,8.46201,P,ugm-3,10.44959,P,ugm-3
14-01-2024,20:00,1.29627,P,ugm-3,8.67858,P,ugm-3,10.66617,P,ugm-3
14-01-2024,21:00,0.98096,P,ugm-3,5.04718,P,ugm-3,6.55130,P,ugm-3
14-01-2024,22:00,1.33130,P,ugm-3,6.62157,P,ugm-3,8.66288,P,ugm-3
14-01-2024,23:00,0.77076,P,ugm-3,4.99049,P,ugm-3,6.17230,P,ugm-3
14-01-2024,24:00,0.56055,P,ugm-3,3.14708,P,ugm-3,4.00658,P,ugm-3
15-01-2024,01:00,0.97908,P,ugm-3,2.59645,P,ugm-3,4.09769,P,ugm-3
15-01-2024,02:00,0.60610,P,ugm-3,1.44301,P,ugm-3,2.37235,P,ugm-3
15-01-2024,03:00,0.83922,P,ugm-3,1.57082,P,ugm-3,2.85760,P,ugm-3
15-01-2024,04:00,0.76928,P,ugm-3,1.35455,P,ugm-3,2.53410,P,ugm-3
15-01-2024,05:00,0.76928,P,ugm-3,2.10939,P,ugm-3,3.28893,P,ugm-3
15-01-2024,06:00,1.04902,P,ugm-3,2.70488,P,ugm-3,4.31336,P,ugm-3
15-01-2024,07:00,4.51078,P,ugm-3,5.43055,P,ugm-3,12.34698,P,ugm-3
15-01-2024,08:00,23.74279,P,ugm-3,14.43857,P,ugm-3,50.84367,P,ugm-3
15-01-2024,09:00,33.04408,P,ugm-3,17.96937,P,ugm-3,68.63626,P,ugm-3
15-01-2024,10:00,42.79996,P,ugm-3,19.23957,P,ugm-3,84.86525,P,ugm-3
15-01-2024,11:00,29.30258,P,ugm-3,14.64821,P,ugm-3,59.57821,P,ugm-3
15-01-2024,12:00,29.44245,P,ugm-3,14.81116,P,ugm-3,59.95563,P,ugm-3
15-01-2024,13:00,34.19801,P,ugm-3,15.39129,P,ugm-3,67.82750,P,ugm-3
15-01-2024,14:00,30.56141,P,ugm-3,15.25214,P,ugm-3,62.11231,P,ugm-3
15-01-2024,15:00,26.54017,P,ugm-3,15.10967,P,ugm-3,55.80403,P,ugm-3
15-01-2024,16:00,23.00847,P,ugm-3,17.55943,P,ugm-3,52.83860,P,ugm-3
15-01-2024,17:00,21.57482,P,ugm-3,21.86043,P,ugm-3,54.94136,P,ugm-3
15-01-2024,18:00,29.19768,P,ugm-3,35.02791,P,ugm-3,79.79706,P,ugm-3